Regional Weather Roundup
Issued by NWS

Home | Current Version | Previous Version | Text Only | Print | Product List | Glossary On
Versions: 1 2 3 4 5 6 7 8 9 10 11 12 13 14 15 16 17 18 19 20 21 22 23 24 25 26 27 28 29 30 31 32 33 34 35 36 37 38 39 40 41 42 43 44 45 46 47 48 49 50
000
ASUS43 KDTX 222310
RWRMI
MICHIGAN HOURLY REGIONAL WEATHER ROUNDUP
NATIONAL WEATHER SERVICE DETROIT/PONTIAC MI
600 PM EST FRI FEB 22 2019

NOTE: "FAIR" INDICATES FEW OR NO CLOUDS BELOW 12,000 FEET WITH NO
SIGNIFICANT WEATHER AND/OR OBSTRUCTION TO VISIBILITY.

MIZ047>049-052>055-059>063-066>070-074>076-081>083-230000-
SOUTHEAST LOWER MICHIGAN

CITY           SKY/WX    TMP DP  RH WIND       PRES   REMARKS
ADRIAN         FAIR      33  22  63 E7        30.40F WCI  27
ALMA           FAIR      32  20  61 NE3       30.41F
ANN ARBOR      FAIR      34  23  64 CALM      30.40R
BAD AXE        FAIR      31  25  76 E3        30.42F
CARO           FAIR      32  27  82 N8        30.41F WCI  25
DETROIT CITY   FAIR      33  19  56 SE5       30.42S WCI  29
DETROIT        MOCLDY    34  21  59 SE6       30.42R WCI  29
FLINT          FAIR      38  18  44 CALM      30.39F
GROSSE ILE     FAIR      31  25  78 S3        30.41F
HILLSDALE      FAIR      35  23  61 E3        30.37R
HOWELL         FAIR      37  19  49 SE5       30.38S WCI  33

CITY           SKY/WX    TMP DP  RH WIND       PRES   REMARKS
JACKSON        FAIR      36  23  59 E5        30.38R WCI  32
LAMBERTVILLE   FAIR      32  26  77 CALM      30.42R
LANSING        FAIR      37  21  52 CALM      30.39F
LAPEER         FAIR      35  20  53 E3        30.40F
MASON          FAIR      37  20  50 CALM      30.38S
MONROE         FAIR      32  24  72 E5        30.41S WCI  27
MT. CLEMENS    PTCLDY    33  20  57 CALM      30.40F
PONTIAC        FAIR      35  18  49 E7        30.38F WCI  29
PORT HOPE        N/A     30  23  75 E6        30.44F WCI  24
PORT HURON     FAIR      32  25  74 NE9       30.42F WCI  24
TRI CITIES     FAIR      32  23  69 NE7       30.42F WCI  26
MIDLAND        FAIR      33  23  65 E7        30.41F WCI  27
TROY           FAIR      35  14  43 CALM      30.43R
SAGINAW HB     FAIR      32  27  80 NE7       30.42F WCI  26
$$
MIZ043>046-050>051-056>058-064>065-071>073-077>080-230000-
SOUTHWEST LOWER MICHIGAN

CITY           SKY/WX    TMP DP  RH WIND       PRES   REMARKS
BATTLE CREEK   FAIR      37  20  50 SE5       30.38R WCI  33
BENTON HARBOR  FAIR      35  23  61 N5        30.38R WCI  31
BIG RAPIDS     FAIR      33  20  58 E3        30.37F
COLDWATER      FAIR      37  24  60 E5        30.37S WCI  33
FREMONT        FAIR      35  20  53 CALM      30.37F
HOLLAND        FAIR      37  20  50 NE5       30.37F WCI  33
GRAND RAPIDS   FAIR      35  22  58 E7        30.37F WCI  29
IONIA          FAIR      34  19  54 CALM      30.38F
KALAMAZOO      FAIR      39  22  50 E5        30.38R
LUDINGTON      FAIR      32  23  70 W3        30.39F
MARSHALL       FAIR      37  23  56 CALM      30.37R
MOUNT PLEASANT FAIR      34  19  55 CALM      30.40F
MUSKEGON       FAIR      34  21  59 NW5       30.39F WCI  30
SOUTH HAVEN    FAIR      37  24  60 CALM      30.37S
$$
MIZ016>042-230000-
NORTHERN LOWER MICHIGAN

CITY           SKY/WX    TMP DP  RH WIND       PRES   REMARKS
ALPENA         FAIR      29  20  69 SE8       30.42F WCI  21
BEAVER ISLAND  FAIR      29  24  82 SW5       30.40F WCI  24
BELLAIRE       FAIR      33  22  64 NW3       30.41F
CADILLAC       FAIR      33  14  45 CALM      30.35F
CHARLEVOIX     FAIR      31  24  73 W5        30.44S WCI  26
FRANKFORT      FAIR      32  24  72 CALM      30.40F
GAYLORD        FAIR      31  18  58 SW5       30.36F WCI  26
HARBOR SPRINGS FAIR      29  22  73 SW3       30.41S
HOUGHTON LAKE  FAIR      34  18  52 CALM      30.38F
MANISTEE       FAIR      30  24  78 W7        30.39F WCI  23
OSCODA         FAIR      31  20  64 S7        30.43S WCI  24
PELLSTON       FAIR      31  19  61 W3        30.40F
ROGERS CITY    MOCLDY    29  24  80 E3        30.42F
TRAVERSE CITY  FAIR      35  23  61 NE5       30.39S WCI  31
$$
MIZ007>008-015-230000-
EASTERN UPPER MICHIGAN

CITY           SKY/WX    TMP DP  RH WIND       PRES   REMARKS
KINROSS        CLOUDY    29  21  72 CALM      30.39F
MACKINAC ISLAN FAIR      30  22  73 W8        30.39F WCI  22
NEWBERRY       FAIR      28  20  72 MISG      30.37R
S. S. MARIE    CLOUDY    31  21  66 SW5       30.39F WCI  26
MUNISING         N/A     32  20  61 S6        30.34F WCI  26
$$
MIZ004>006-011>014-085-230000-
CENTRAL UPPER MICHIGAN

CITY           SKY/WX    TMP DP  RH WIND       PRES   REMARKS
MANISTIQUE     FAIR      28  20  70 S7        30.37F WCI  21
ESCANABA       FAIR      27  18  69 S10       30.37F WCI  17
MENOMINEE      FAIR      29  18  63 S8        30.38F WCI  21
SAWYER-GWINN   CLEAR     32  19  59 S3        30.30F
$$
MIZ001>003-009>011-084-230000-
WESTERN UPPER MICHIGAN

CITY           SKY/WX    TMP DP  RH WIND       PRES   REMARKS
IRON MOUNTAIN  FAIR      33  17  51 S5        30.29F WCI  29
HOUGHTON       FAIR      22  15  75 NW7       30.29F WCI  13
COPPER HARBOR    N/A     26  21  81 CALM      30.33S
IRONWOOD       CLOUDY    32  20  61 SW5       30.29F WCI  27
$$

ABBREVIATIONS USED IN REMARKS
   TC - TEMPERATURE IN CELSIUS
  WCI - WIND CHILL INDEX
   HX - HEAT INDEX
  VSB - VISIBILITY





USA.gov is the U.S. government's official web portal to all federal, state and local government web resources and services.